SHU5472 UHWW-ZYHB

Flight info

Callsign SHU5472
Flight time 1h 12m
Altitude 38100
Route SANAR B451 KETOV
Aircraft A319/M-SDE3FGHIRWY/LB1

Departure

Time 2026-05-05 10:00
Airport Vladivostok International Airport (UHWW)

Arrival

Time 2026-05-05 11:12
Airport Harbin Taiping International Airport (ZYHB)
Time Latitude Longitude Altitude Speed Heading
2026-05-05 09:11 43.39851 132.16837 42 ft 0 kts 152°
2026-05-05 09:42 43.39863 132.16829 60 ft 3 kts 153°
2026-05-05 09:43 43.39882 132.16816 61 ft 3 kts 155°
2026-05-05 09:43 43.39902 132.16804 62 ft 3 kts 159°
2026-05-05 09:43 43.39922 132.16794 64 ft 3 kts 170°
2026-05-05 09:43 43.39942 132.16793 64 ft 3 kts 201°
2026-05-05 09:44 43.39953 132.16801 64 ft 0 kts 240°
2026-05-05 09:47 43.39952 132.16801 64 ft 0 kts 240°
2026-05-05 09:47 43.39946 132.16787 64 ft 3 kts 240°
2026-05-05 09:47 43.39936 132.16762 64 ft 3 kts 240°
2026-05-05 09:47 43.39925 132.16736 67 ft 3 kts 240°
2026-05-05 09:48 43.39914 132.16707 68 ft 4 kts 240°
2026-05-05 09:48 43.39901 132.16676 65 ft 4 kts 240°
2026-05-05 09:48 43.39886 132.16640 66 ft 5 kts 241°
2026-05-05 09:48 43.39869 132.16597 68 ft 5 kts 241°
2026-05-05 09:49 43.39852 132.16553 68 ft 5 kts 241°
2026-05-05 09:49 43.39833 132.16506 66 ft 6 kts 241°
2026-05-05 09:49 43.39814 132.16458 68 ft 6 kts 241°
2026-05-05 09:49 43.39794 132.16408 68 ft 6 kts 241°
2026-05-05 09:50 43.39773 132.16356 61 ft 6 kts 241°
2026-05-05 09:50 43.39752 132.16303 64 ft 6 kts 241°
2026-05-05 09:50 43.39738 132.16268 69 ft 6 kts 245°
2026-05-05 09:50 43.39757 132.16220 65 ft 6 kts 320°
2026-05-05 09:51 43.39792 132.16187 65 ft 6 kts 328°
2026-05-05 09:51 43.39829 132.16157 66 ft 6 kts 330°
2026-05-05 09:51 43.39869 132.16126 69 ft 7 kts 330°
2026-05-05 09:51 43.39899 132.16080 67 ft 6 kts 278°
2026-05-05 09:52 43.39878 132.16027 66 ft 6 kts 239°
2026-05-05 09:52 43.39850 132.15956 68 ft 12 kts 241°
2026-05-05 09:52 43.39801 132.15834 69 ft 16 kts 241°
2026-05-05 09:52 43.39747 132.15703 61 ft 16 kts 240°
2026-05-05 09:53 43.39694 132.15571 64 ft 16 kts 241°
2026-05-05 09:53 43.39641 132.15440 66 ft 16 kts 241°
2026-05-05 09:53 43.39588 132.15310 69 ft 16 kts 240°
2026-05-05 09:53 43.39535 132.15178 63 ft 16 kts 240°
2026-05-05 09:54 43.39482 132.15047 62 ft 16 kts 241°
2026-05-05 09:54 43.39433 132.14924 67 ft 16 kts 240°
2026-05-05 09:54 43.39411 132.14871 66 ft 16 kts 240°
2026-05-05 09:54 43.39357 132.14738 63 ft 16 kts 240°
2026-05-05 09:55 43.39303 132.14606 69 ft 16 kts 241°
2026-05-05 09:55 43.39250 132.14473 68 ft 16 kts 240°
2026-05-05 09:55 43.39196 132.14341 65 ft 16 kts 241°
2026-05-05 09:55 43.39143 132.14209 66 ft 16 kts 241°
2026-05-05 09:56 43.39089 132.14077 69 ft 16 kts 241°
2026-05-05 09:56 43.39036 132.13945 68 ft 16 kts 241°
2026-05-05 09:56 43.39002 132.13860 61 ft 16 kts 241°
2026-05-05 09:56 43.38963 132.13764 68 ft 16 kts 241°
2026-05-05 09:57 43.38909 132.13630 69 ft 16 kts 241°
2026-05-05 09:57 43.38856 132.13496 67 ft 16 kts 242°
2026-05-05 09:57 43.38803 132.13361 69 ft 16 kts 242°
2026-05-05 09:57 43.38769 132.13269 64 ft 8 kts 252°
2026-05-05 09:58 43.38783 132.13199 67 ft 8 kts 311°
2026-05-05 09:58 43.38827 132.13158 68 ft 8 kts 332°
2026-05-05 09:58 43.38873 132.13124 70 ft 8 kts 332°
2026-05-05 09:58 43.38928 132.13100 61 ft 9 kts 10°
2026-05-05 09:59 43.38969 132.13172 65 ft 11 kts 62°
2026-05-05 09:59 43.39090 132.13474 65 ft 72 kts 60°
2026-05-05 09:59 43.39441 132.14344 68 ft 134 kts 61°
2026-05-05 09:59 43.39962 132.15643 180 ft 171 kts 62°
2026-05-05 10:00 43.40362 132.16626 635 ft 167 kts 63°
2026-05-05 10:00 43.40490 132.16952 755 ft 167 kts 64°
2026-05-05 10:00 43.41044 132.18368 1364 ft 169 kts 64°
2026-05-05 10:01 43.41621 132.19793 1923 ft 172 kts 62°
2026-05-05 10:01 43.42210 132.21241 2448 ft 175 kts 60°
2026-05-05 10:01 43.42809 132.22716 2953 ft 179 kts 58°
2026-05-05 10:01 43.43427 132.24238 3403 ft 189 kts 57°
2026-05-05 10:02 43.44107 132.25905 3673 ft 211 kts 57°
2026-05-05 10:02 43.44862 132.27764 3911 ft 235 kts 57°
2026-05-05 10:02 43.45701 132.29834 4278 ft 255 kts 58°
2026-05-05 10:02 43.46569 132.31995 4999 ft 261 kts 58°
2026-05-05 10:03 43.47357 132.34260 5806 ft 266 kts 74°
2026-05-05 10:03 43.47434 132.36797 6573 ft 269 kts 104°
2026-05-05 10:03 43.46663 132.39119 7266 ft 268 kts 134°
2026-05-05 10:03 43.45237 132.40697 8001 ft 263 kts 159°
2026-05-05 10:04 43.43611 132.41891 8789 ft 268 kts 159°
2026-05-05 10:04 43.41907 132.42915 9514 ft 264 kts 177°
2026-05-05 10:04 43.40139 132.42885 10248 ft 248 kts 205°
2026-05-05 10:04 43.38663 132.41884 11124 ft 231 kts 227°
2026-05-05 10:05 43.37663 132.40241 11936 ft 221 kts 247°
2026-05-05 10:05 43.36976 132.38376 12731 ft 222 kts 248°
2026-05-05 10:05 43.36274 132.36477 13558 ft 224 kts 248°
2026-05-05 10:05 43.35564 132.34567 14261 ft 225 kts 248°
2026-05-05 10:06 43.34845 132.32642 14956 ft 228 kts 248°
2026-05-05 10:06 43.34118 132.30699 15652 ft 230 kts 248°
2026-05-05 10:06 43.33384 132.28734 16325 ft 234 kts 248°
2026-05-05 10:06 43.32613 132.26659 16561 ft 255 kts 247°
2026-05-05 10:07 43.31774 132.24393 16698 ft 278 kts 247°
2026-05-05 10:07 43.30860 132.21940 16900 ft 297 kts 246°
2026-05-05 10:07 43.29945 132.19373 17431 ft 299 kts 253°
2026-05-05 10:07 43.29500 132.16580 17993 ft 302 kts 263°
2026-05-05 10:08 43.29181 132.13698 18512 ft 308 kts 263°
2026-05-05 10:08 43.28864 132.10771 19080 ft 312 kts 263°
2026-05-05 10:08 43.28544 132.07795 19531 ft 321 kts 263°
2026-05-05 10:08 43.28211 132.04700 19814 ft 333 kts 262°
2026-05-05 10:09 43.27865 132.01533 20320 ft 338 kts 262°
2026-05-05 10:09 43.27514 131.98321 20880 ft 342 kts 262°
2026-05-05 10:09 43.27159 131.95073 21448 ft 345 kts 262°
2026-05-05 10:09 43.26799 131.91795 22019 ft 349 kts 262°
2026-05-05 10:10 43.26438 131.88531 22571 ft 352 kts 262°
2026-05-05 10:10 43.26067 131.85192 23118 ft 356 kts 262°
2026-05-05 10:10 43.25690 131.81820 23600 ft 359 kts 262°
2026-05-05 10:10 43.25307 131.78418 24064 ft 362 kts 262°
2026-05-05 10:11 43.24923 131.74998 24530 ft 364 kts 262°
2026-05-05 10:11 43.24537 131.71557 24990 ft 366 kts 262°
2026-05-05 10:11 43.24145 131.68090 25439 ft 369 kts 262°
2026-05-05 10:11 43.23751 131.64603 25874 ft 371 kts 262°
2026-05-05 10:12 43.23353 131.61095 26299 ft 373 kts 263°
2026-05-05 10:12 43.22954 131.57571 26752 ft 375 kts 263°
2026-05-05 10:12 43.22551 131.54021 27199 ft 377 kts 263°
2026-05-05 10:12 43.22146 131.50458 27627 ft 380 kts 263°
2026-05-05 10:13 43.21744 131.46867 28050 ft 382 kts 264°
2026-05-05 10:13 43.21664 131.43232 28467 ft 383 kts 275°
2026-05-05 10:13 43.21926 131.39583 28874 ft 385 kts 276°
2026-05-05 10:13 43.22192 131.35922 29281 ft 387 kts 276°
2026-05-05 10:14 43.22457 131.32237 29648 ft 390 kts 275°
2026-05-05 10:14 43.22718 131.28525 29981 ft 392 kts 275°
2026-05-05 10:14 43.22976 131.24802 30304 ft 394 kts 275°
2026-05-05 10:14 43.23235 131.21039 30541 ft 397 kts 275°
2026-05-05 10:15 43.23480 131.17306 30819 ft 400 kts 275°
2026-05-05 10:15 43.23688 131.13500 31195 ft 400 kts 274°
2026-05-05 10:15 43.23864 131.09708 31698 ft 397 kts 274°
2026-05-05 10:15 43.24026 131.05939 32178 ft 395 kts 274°
2026-05-05 10:16 43.24186 131.02185 32635 ft 393 kts 274°
2026-05-05 10:16 43.24350 130.98445 33086 ft 392 kts 274°
2026-05-05 10:16 43.24518 130.94716 33530 ft 391 kts 274°
2026-05-05 10:16 43.24689 130.90999 33947 ft 390 kts 274°
2026-05-05 10:17 43.24864 130.87302 34340 ft 388 kts 274°
2026-05-05 10:17 43.25037 130.83606 34702 ft 388 kts 274°
2026-05-05 10:17 43.25206 130.79912 35060 ft 388 kts 274°
2026-05-05 10:17 43.25372 130.76217 35395 ft 388 kts 274°
2026-05-05 10:18 43.25537 130.72531 35711 ft 388 kts 274°
2026-05-05 10:18 43.25700 130.68842 35823 ft 386 kts 274°
2026-05-05 10:18 43.26017 130.61547 35829 ft 381 kts 274°
2026-05-05 10:19 43.26332 130.54332 35833 ft 381 kts 274°
2026-05-05 10:19 43.26643 130.47063 35834 ft 382 kts 274°
2026-05-05 10:20 43.26944 130.39787 35836 ft 382 kts 274°
2026-05-05 10:20 43.27241 130.32513 35833 ft 382 kts 274°
2026-05-05 10:21 43.27538 130.25228 35843 ft 382 kts 273°
2026-05-05 10:21 43.27832 130.17944 35842 ft 382 kts 273°
2026-05-05 10:22 43.28122 130.10667 35848 ft 382 kts 273°
2026-05-05 10:22 43.28406 130.03390 35843 ft 382 kts 273°
2026-05-05 10:23 43.28683 129.96114 35850 ft 382 kts 273°
2026-05-05 10:23 43.28944 129.88890 35849 ft 381 kts 273°
2026-05-05 10:24 43.29475 129.81667 35863 ft 382 kts 283°
2026-05-05 10:24 43.31776 129.75087 35846 ft 388 kts 303°
2026-05-05 10:25 43.35438 129.69583 35842 ft 391 kts 308°
2026-05-05 10:25 43.39158 129.64113 35840 ft 392 kts 308°
2026-05-05 10:26 43.42880 129.58627 35823 ft 392 kts 308°
2026-05-05 10:26 43.45974 129.54062 35812 ft 393 kts 308°
2026-05-05 10:27 43.49716 129.48527 35812 ft 395 kts 308°
2026-05-05 10:27 43.53466 129.42975 35836 ft 395 kts 308°
2026-05-05 10:28 43.57211 129.37416 35837 ft 395 kts 308°
2026-05-05 10:28 43.60949 129.31865 35832 ft 395 kts 308°
2026-05-05 10:29 43.64670 129.26332 35832 ft 395 kts 308°
2026-05-05 10:29 43.68411 129.20755 35830 ft 395 kts 308°
2026-05-05 10:30 43.72142 129.15170 35825 ft 396 kts 308°
2026-05-05 10:30 43.75875 129.09582 35815 ft 396 kts 308°
2026-05-05 10:31 43.79650 129.04031 35818 ft 396 kts 309°
2026-05-05 10:31 43.83437 128.98496 35812 ft 396 kts 308°
2026-05-05 10:32 43.87180 128.92964 35812 ft 396 kts 308°
2026-05-05 10:32 43.90940 128.87393 35827 ft 395 kts 308°
2026-05-05 10:33 43.94685 128.81824 35817 ft 394 kts 308°
2026-05-05 10:33 43.98416 128.76266 35810 ft 393 kts 308°
2026-05-05 10:34 44.02148 128.70712 35807 ft 393 kts 308°
2026-05-05 10:34 44.05877 128.65163 35803 ft 393 kts 308°
2026-05-05 10:35 44.09582 128.59630 35833 ft 393 kts 308°
2026-05-05 10:35 44.13306 128.54054 35826 ft 393 kts 308°
2026-05-05 10:36 44.17039 128.48495 35818 ft 393 kts 308°
2026-05-05 10:36 44.20782 128.42939 35806 ft 394 kts 308°
2026-05-05 10:37 44.24530 128.37358 35797 ft 395 kts 308°
2026-05-05 10:37 44.28281 128.31752 35796 ft 395 kts 308°
2026-05-05 10:38 44.32035 128.26127 35804 ft 396 kts 308°
2026-05-05 10:38 44.35766 128.20514 35829 ft 396 kts 308°
2026-05-05 10:39 44.39522 128.14863 35829 ft 396 kts 308°
2026-05-05 10:39 44.43267 128.09222 35823 ft 396 kts 307°
2026-05-05 10:40 44.47016 128.03571 35304 ft 395 kts 307°
2026-05-05 10:40 44.48883 128.00753 34874 ft 393 kts 307°
2026-05-05 10:40 44.50737 127.97945 34486 ft 391 kts 307°
2026-05-05 10:41 44.52580 127.95148 33990 ft 390 kts 307°
2026-05-05 10:41 44.54416 127.92359 33455 ft 389 kts 307°
2026-05-05 10:41 44.56248 127.89575 32878 ft 389 kts 307°
2026-05-05 10:41 44.58084 127.86785 32316 ft 388 kts 307°
2026-05-05 10:42 44.61693 127.81298 31236 ft 382 kts 307°
2026-05-05 10:42 44.63485 127.78570 30703 ft 379 kts 307°
2026-05-05 10:42 44.65261 127.75863 30196 ft 375 kts 307°
2026-05-05 10:43 44.67024 127.73172 29676 ft 372 kts 307°
2026-05-05 10:43 44.68773 127.70505 29100 ft 369 kts 307°
2026-05-05 10:43 44.70506 127.67855 28516 ft 366 kts 306°
2026-05-05 10:43 44.72221 127.65225 27942 ft 363 kts 306°
2026-05-05 10:44 44.73917 127.62620 27381 ft 359 kts 306°
2026-05-05 10:44 44.75595 127.60041 26833 ft 356 kts 306°
2026-05-05 10:44 44.77264 127.57471 26293 ft 353 kts 306°
2026-05-05 10:44 44.78914 127.54929 25763 ft 351 kts 306°
2026-05-05 10:45 44.80553 127.52404 25262 ft 348 kts 306°
2026-05-05 10:45 44.82184 127.49891 24750 ft 346 kts 306°
2026-05-05 10:45 44.83785 127.47425 24255 ft 345 kts 306°
2026-05-05 10:45 44.85399 127.44935 23762 ft 343 kts 306°
2026-05-05 10:46 44.87003 127.42454 23275 ft 342 kts 306°
2026-05-05 10:46 44.88604 127.39979 22702 ft 341 kts 306°
2026-05-05 10:46 44.90202 127.37508 22136 ft 341 kts 306°
2026-05-05 10:46 44.91797 127.35035 21579 ft 340 kts 306°
2026-05-05 10:47 44.93386 127.32568 21034 ft 339 kts 306°
2026-05-05 10:47 44.94974 127.30104 20506 ft 339 kts 306°
2026-05-05 10:47 44.96560 127.27645 19986 ft 338 kts 306°
2026-05-05 10:47 44.98141 127.25194 19473 ft 337 kts 306°
2026-05-05 10:48 44.99711 127.22750 18964 ft 336 kts 306°
2026-05-05 10:48 45.01279 127.20305 18462 ft 335 kts 306°
2026-05-05 10:48 45.02840 127.17868 17968 ft 333 kts 306°
2026-05-05 10:48 45.04404 127.15453 17404 ft 333 kts 306°
2026-05-05 10:49 45.05983 127.13066 16850 ft 331 kts 306°
2026-05-05 10:49 45.07561 127.10706 16301 ft 328 kts 306°
2026-05-05 10:49 45.09116 127.08389 15809 ft 320 kts 306°
2026-05-05 10:49 45.10613 127.06156 15346 ft 313 kts 306°
2026-05-05 10:50 45.12094 127.03937 14876 ft 306 kts 305°
2026-05-05 10:50 45.13558 127.01728 14407 ft 300 kts 304°
2026-05-05 10:50 45.14973 126.99589 13953 ft 295 kts 304°
2026-05-05 10:50 45.16345 126.97515 13548 ft 289 kts 304°
2026-05-05 10:51 45.17708 126.95450 13099 ft 286 kts 303°
2026-05-05 10:51 45.19062 126.93392 12657 ft 285 kts 303°
2026-05-05 10:51 45.20405 126.91349 12285 ft 282 kts 303°
2026-05-05 10:51 45.21742 126.89312 11956 ft 282 kts 303°
2026-05-05 10:52 45.23079 126.87272 11624 ft 282 kts 304°
2026-05-05 10:52 45.24415 126.85233 11298 ft 282 kts 304°
2026-05-05 10:52 45.25755 126.83184 10972 ft 283 kts 304°
2026-05-05 10:52 45.27092 126.81137 10650 ft 283 kts 304°
2026-05-05 10:53 45.28434 126.79082 10331 ft 284 kts 304°
2026-05-05 10:53 45.29777 126.77031 10065 ft 284 kts 304°
2026-05-05 10:53 45.31102 126.75014 10006 ft 272 kts 304°
2026-05-05 10:53 45.32375 126.73084 10013 ft 264 kts 303°
2026-05-05 10:54 45.33623 126.71177 10015 ft 263 kts 303°
2026-05-05 10:54 45.34868 126.69265 10015 ft 263 kts 303°
2026-05-05 10:54 45.36111 126.67356 10015 ft 263 kts 303°
2026-05-05 10:54 45.37356 126.65444 10012 ft 263 kts 303°
2026-05-05 10:55 45.38597 126.63538 10013 ft 263 kts 303°
2026-05-05 10:55 45.39838 126.61631 10015 ft 263 kts 303°
2026-05-05 10:55 45.41064 126.59744 10015 ft 262 kts 303°
2026-05-05 10:55 45.42305 126.57833 10015 ft 262 kts 303°
2026-05-05 10:56 45.43545 126.55923 10022 ft 263 kts 303°
2026-05-05 10:56 45.44793 126.54000 10016 ft 266 kts 304°
2026-05-05 10:56 45.46054 126.52055 10012 ft 268 kts 304°
2026-05-05 10:56 45.47316 126.50098 10010 ft 268 kts 304°
2026-05-05 10:57 45.48577 126.48133 10007 ft 268 kts 304°
2026-05-05 10:57 45.49832 126.46174 10006 ft 263 kts 304°
2026-05-05 10:57 45.51023 126.44333 10006 ft 250 kts 303°
2026-05-05 10:57 45.52202 126.42503 10006 ft 246 kts 303°
2026-05-05 10:58 45.53339 126.40729 10006 ft 245 kts 303°
2026-05-05 10:58 45.54464 126.38911 10003 ft 241 kts 297°
2026-05-05 10:58 45.55041 126.36783 9857 ft 225 kts 269°
2026-05-05 10:58 45.54802 126.34637 9635 ft 220 kts 245°
2026-05-05 10:59 45.53870 126.32919 9401 ft 223 kts 223°
2026-05-05 10:59 45.52659 126.31507 9166 ft 226 kts 223°
2026-05-05 10:59 45.51438 126.30085 8919 ft 227 kts 223°
2026-05-05 10:59 45.50214 126.28656 8690 ft 228 kts 223°
2026-05-05 11:00 45.48986 126.27221 8453 ft 230 kts 223°
2026-05-05 11:00 45.47745 126.25773 8217 ft 231 kts 222°
2026-05-05 11:00 45.46498 126.24319 7996 ft 232 kts 222°
2026-05-05 11:00 45.45247 126.22860 7763 ft 233 kts 222°
2026-05-05 11:01 45.43989 126.21396 7539 ft 234 kts 222°
2026-05-05 11:01 45.42727 126.19923 7313 ft 235 kts 221°
2026-05-05 11:01 45.41459 126.18443 7090 ft 236 kts 221°
2026-05-05 11:01 45.40182 126.16953 6870 ft 238 kts 221°
2026-05-05 11:02 45.38898 126.15456 6644 ft 240 kts 221°
2026-05-05 11:02 45.37604 126.13948 6428 ft 241 kts 221°
2026-05-05 11:02 45.36306 126.12438 6214 ft 242 kts 220°
2026-05-05 11:02 45.35001 126.10924 5983 ft 243 kts 220°
2026-05-05 11:03 45.33691 126.09405 5691 ft 243 kts 220°
2026-05-05 11:03 45.32437 126.07818 5407 ft 239 kts 232°
2026-05-05 11:03 45.31694 126.05799 5139 ft 232 kts 257°
2026-05-05 11:03 45.31634 126.03561 4864 ft 226 kts 282°
2026-05-05 11:04 45.32235 126.01541 4589 ft 221 kts 306°
2026-05-05 11:04 45.33349 126.00084 4312 ft 218 kts 330°
2026-05-05 11:04 45.34772 125.99402 4026 ft 216 kts 353°
2026-05-05 11:04 45.36255 125.99592 3746 ft 215 kts 16°
2026-05-05 11:05 45.37625 126.00439 3471 ft 214 kts 22°
2026-05-05 11:05 45.38969 126.01312 3196 ft 211 kts 22°
2026-05-05 11:05 45.40289 126.02162 3028 ft 204 kts 22°
2026-05-05 11:05 45.41543 126.02970 3006 ft 192 kts 21°
2026-05-05 11:06 45.42745 126.03742 3008 ft 188 kts 21°
2026-05-05 11:06 45.43929 126.04500 3009 ft 186 kts 21°
2026-05-05 11:06 45.45053 126.05222 3021 ft 169 kts 21°
2026-05-05 11:06 45.46038 126.05998 3001 ft 156 kts 34°
2026-05-05 11:07 45.46847 126.06945 3003 ft 147 kts 34°
2026-05-05 11:07 45.47631 126.07853 3004 ft 144 kts 34°
2026-05-05 11:07 45.48405 126.08750 3004 ft 143 kts 34°
2026-05-05 11:07 45.49165 126.09634 3006 ft 143 kts 34°
2026-05-05 11:08 45.49945 126.10541 3012 ft 143 kts 34°
2026-05-05 11:08 45.50705 126.11425 2991 ft 143 kts 34°
2026-05-05 11:08 45.51464 126.12312 2876 ft 137 kts 34°
2026-05-05 11:08 45.52187 126.13155 2721 ft 132 kts 34°
2026-05-05 11:09 45.52895 126.13980 2550 ft 130 kts 35°
2026-05-05 11:09 45.53595 126.14795 2389 ft 130 kts 35°
2026-05-05 11:09 45.54297 126.15614 2214 ft 130 kts 35°
2026-05-05 11:09 45.54998 126.16432 2040 ft 130 kts 35°
2026-05-05 11:10 45.55698 126.17249 1864 ft 130 kts 36°
2026-05-05 11:10 45.56398 126.18068 1691 ft 130 kts 35°
2026-05-05 11:10 45.57093 126.18889 1509 ft 129 kts 34°
2026-05-05 11:10 45.57792 126.19695 1343 ft 129 kts 36°
2026-05-05 11:11 45.58491 126.20510 1188 ft 130 kts 37°
2026-05-05 11:11 45.59195 126.21335 1024 ft 131 kts 37°
2026-05-05 11:11 45.59899 126.22158 844 ft 131 kts 38°
2026-05-05 11:11 45.60603 126.22977 672 ft 130 kts 38°
2026-05-05 11:12 45.61295 126.23788 489 ft 130 kts 39°
2026-05-05 11:12 45.61932 126.24538 459 ft 101 kts 39°
2026-05-05 11:12 45.62330 126.25000 455 ft 44 kts 37°
2026-05-05 11:12 45.62491 126.25096 455 ft 8 kts 18°
2026-05-05 11:13 45.62549 126.25119 455 ft 9 kts 11°
2026-05-05 11:13 45.62610 126.25132 455 ft 9 kts
2026-05-05 11:13 45.62672 126.25126 455 ft 9 kts 316°
2026-05-05 11:13 45.62647 126.25063 455 ft 8 kts 218°
2026-05-05 11:14 45.62603 126.25013 456 ft 8 kts 218°
2026-05-05 11:14 45.62560 126.24963 455 ft 8 kts 219°
2026-05-05 11:14 45.62517 126.24914 455 ft 8 kts 219°
2026-05-05 11:14 45.62476 126.24865 455 ft 8 kts 219°
2026-05-05 11:15 45.62435 126.24817 457 ft 7 kts 220°
2026-05-05 11:15 45.62394 126.24767 457 ft 9 kts 220°
2026-05-05 11:15 45.62338 126.24700 458 ft 12 kts 220°
2026-05-05 11:15 45.62275 126.24625 457 ft 12 kts 219°
2026-05-05 11:16 45.62212 126.24553 459 ft 12 kts 218°
2026-05-05 11:16 45.62149 126.24482 459 ft 11 kts 219°
2026-05-05 11:16 45.62089 126.24408 459 ft 11 kts 227°
2026-05-05 11:16 45.62090 126.24341 460 ft 11 kts 299°
2026-05-05 11:17 45.62138 126.24258 458 ft 11 kts 310°
2026-05-05 11:17 45.62188 126.24172 460 ft 11 kts 309°
2026-05-05 11:17 45.62202 126.24095 461 ft 8 kts 255°
2026-05-05 11:17 45.62184 126.24027 460 ft 3 kts 249°
2026-05-05 11:18 45.62177 126.24004 461 ft 2 kts 248°
2026-05-05 11:18 45.62173 126.23990 461 ft 1 kts 248°
2026-05-05 11:18 45.62173 126.23989 461 ft 0 kts 248°